sat.trackr.live / text

‹ back to catalog

STARLINK-37247

NORAD 69835 · 2026-154S

PAYLOAD ACTIVE UNKNOWN

§ Identity

Operator
Country
US
Launch date
2026-07-05
Launch site
AFETR
Launch vehicle
Mass (kg)
RCS (m²)

Purposes: comms

External: N2YO · Heavens-Above · Gunter

§ Orbital elements

Epoch: 2026-09-19T16:11:07.623456Z

Period
93.85 min
Inclination
53.1597°
Eccentricity
0.0001110
Mean motion
15.34399268 rev/d
Perigee alt
461.9 km
Apogee alt
463.5 km
Semi-major
6,840.8 km
B*
4.2466e-4
RAAN
335.4245°
Arg perigee
89.6414°
Mean anomaly
270.4716°
Rev number
1,311

§ Raw data

STARLINK-372471 69835U 26154S   26262.67439379  .00013998  00000+0  42466-3 0  99992 69835  53.1597 335.4245 0001110  89.6414 270.4716 15.34399268 13117

JSON: /api/v1/satellites/69835 · /tle

For live sub-satellite position, see the globe view (requires WebGL).

§ Visibility from observer

Set your observer location to see the next 7 days of passes ≥ 10°. The values pass through the URL so the page stays shareable.

No JS? Fill the form by hand. The geolocation button needs JavaScript.